Date String (YYYY-MM-DD hh:mm:ss) UTC,Instrument flags,absolute air pressure of the measurement (hPa),sample flow rate (lpm),inlet stack bypass flow (lpm),air temperature of the measurement (°C),ambient temperature measured by the external sensor (°C),aerosol sample conditioner tube jacket temperature (°C),OPC LED temperature (°C),internal box temperature (°C),relative humidity of the measurement (%),span deviation,mass concentration of particles derived from Lorenz-Mie calculation of OPC scattering (μg/m³),mass concentration of particles derived from Lorenz-Mie calculation of OPC scattering (μg/m³),mass concentration of particles derived from Lorenz-Mie calculation of OPC scattering (μg/m³)
DateTimeUTC,F1_M11,P_M11,Q1_M11,Q2_M11,T1_M11,T2_M11,T3_M11,T4_M11,T5_M11,U1_M11,ZSPAN_M11,X2_M11,X0_M11,X1_M11
2023-07-23 18:00:00,SystemResetWarning,0833.6,5.00,000.00,029.6,027.0,000.0,037.7,030.7,22.8,0000.0,0006.13,0010.39,0005.69
2023-07-23 18:01:00,SystemResetWarning,0833.6,4.98,000.00,029.5,025.7,000.0,037.6,030.5,24.1,0000.0,0006.06,0010.27,0005.66
2023-07-23 18:02:00,SystemResetWarning,0833.6,5.02,000.00,029.4,025.2,000.0,037.5,030.4,24.8,0000.0,0006.05,0009.97,0005.62
2023-07-23 18:03:00,SystemResetWarning,0833.6,5.00,000.00,029.4,025.5,000.0,037.5,030.3,20.6,0000.0,0006.04,0009.64,0005.62
2023-07-23 18:04:00,SystemResetWarning,0833.7,5.00,000.00,029.3,025.8,000.0,037.5,030.3,19.3,0000.0,0006.09,0009.72,0005.66
2023-07-23 18:05:00,SystemResetWarning,0833.7,5.00,000.00,029.3,026.3,000.0,037.5,030.4,23.1,0000.0,0006.12,0009.99,0005.71
2023-07-23 18:06:00,SystemResetWarning,0833.7,5.00,000.00,029.3,026.7,000.0,037.6,030.5,20.6,0000.0,0006.14,0010.18,0005.73
2023-07-23 18:07:00,SystemResetWarning,0833.7,5.00,000.00,029.3,027.1,000.0,037.6,030.6,20.9,0000.0,0006.15,0009.87,0005.75
2023-07-23 18:08:00,SystemResetWarning,0833.7,4.98,000.00,029.3,026.9,000.0,037.5,030.6,19.1,0000.0,0006.17,0009.87,0005.77
2023-07-23 18:09:00,SystemResetWarning,0833.7,5.01,000.00,029.3,025.6,000.0,037.4,030.4,18.2,0000.0,0006.13,0009.98,0005.76
2023-07-23 18:10:00,SystemResetWarning,0833.7,5.01,000.00,029.2,025.1,000.0,037.3,030.3,18.9,0000.0,0006.16,0011.05,0005.79
2023-07-23 18:11:00,SystemResetWarning,0833.6,5.00,000.00,029.2,025.4,000.0,037.3,030.2,16.9,0000.0,0006.23,0011.40,0005.85
2023-07-23 18:12:00,SystemResetWarning,0833.6,4.99,000.00,029.1,025.8,000.0,037.4,030.2,18.8,0000.0,0006.26,0011.40,0005.88
2023-07-23 18:13:00,SystemResetWarning,0833.6,5.00,000.00,029.1,026.2,000.0,037.4,030.3,19.3,0000.0,0006.20,0011.19,0005.84
2023-07-23 18:14:00,SystemResetWarning,0833.6,5.00,000.00,029.1,026.6,000.0,037.4,030.4,18.8,0000.0,0006.14,0011.13,0005.79
2023-07-23 18:15:00,SystemResetWarning,0833.6,5.01,000.00,029.1,027.0,000.0,037.4,030.5,18.2,0000.0,0006.07,0011.70,0005.74
2023-07-23 18:16:00,SystemResetWarning,0833.6,4.99,000.00,029.2,026.9,000.0,037.4,030.5,19.4,0000.0,0006.05,0011.60,0005.71
2023-07-23 18:17:00,SystemResetWarning,0833.5,4.99,000.00,029.1,025.5,000.0,037.3,030.2,20.0,0000.0,0006.01,0011.76,0005.66
2023-07-23 18:18:00,SystemResetWarning,0833.5,5.01,000.00,029.0,025.1,000.0,037.2,030.2,18.8,0000.0,0005.90,0011.73,0005.56
2023-07-23 18:19:00,SystemResetWarning,0833.5,5.00,000.00,029.0,025.4,000.0,037.2,030.1,18.2,0000.0,0005.81,0011.39,0005.48
2023-07-23 18:20:00,SystemResetWarning,0833.5,4.99,000.00,028.9,025.8,000.0,037.2,030.1,18.4,0000.0,0005.78,0011.49,0005.42
2023-07-23 18:21:00,SystemResetWarning,0833.5,5.00,000.00,028.9,026.2,000.0,037.2,030.2,17.4,0000.0,0005.67,0010.84,0005.31
2023-07-23 18:22:00,SystemResetWarning,0833.5,5.01,000.00,029.0,026.7,000.0,037.2,030.3,19.7,0000.0,0005.57,0010.33,0005.19
2023-07-23 18:23:00,SystemResetWarning,0833.5,5.01,000.00,029.0,027.0,000.0,037.3,030.4,18.0,0000.0,0005.44,0010.23,0005.06
2023-07-23 18:24:00,SystemResetWarning,0833.5,4.98,000.00,029.0,026.9,000.0,037.2,030.5,18.1,0000.0,0005.37,0010.73,0004.96
2023-07-23 18:25:00,SystemResetWarning,0833.4,4.99,000.00,029.0,025.5,000.0,037.1,030.3,16.5,0000.0,0005.29,0010.94,0004.85
2023-07-23 18:26:00,SystemResetWarning,0833.4,5.01,000.00,028.9,025.0,000.0,037.0,030.2,16.2,0000.0,0005.17,0010.33,0004.73
2023-07-23 18:27:00,SystemResetWarning,0833.4,5.01,000.00,028.9,025.4,000.0,037.0,030.1,19.1,0000.0,0005.03,0010.20,0004.60
2023-07-23 18:28:00,SystemResetWarning,0833.4,5.00,000.00,028.8,025.8,000.0,037.1,030.1,17.2,0000.0,0004.95,0009.75,0004.51
2023-07-23 18:29:00,SystemResetWarning,0833.4,5.00,000.00,028.8,026.2,000.0,037.1,030.2,18.2,0000.0,0004.94,0009.52,0004.48
2023-07-23 18:30:00,SystemResetWarning,0833.4,5.00,000.00,028.9,026.7,000.0,037.1,030.3,18.4,0000.0,0004.93,0009.62,0004.43
2023-07-23 18:31:00,SystemResetWarning,0833.5,5.00,000.00,028.9,027.0,000.0,037.2,030.4,17.2,0000.0,0004.86,0009.31,0004.38
2023-07-23 18:32:00,SystemResetWarning,0833.4,5.00,000.00,028.9,027.3,000.0,037.2,030.5,16.6,0000.0,0004.81,0008.84,0004.35
2023-07-23 18:33:00,SystemResetWarning,0833.4,4.98,000.00,029.0,026.4,000.0,037.1,030.4,18.6,0000.0,0004.76,0008.64,0004.34
2023-07-23 18:34:00,SystemResetWarning,0833.4,5.01,000.00,028.9,025.2,000.0,037.0,030.2,19.0,0000.0,0004.74,0008.65,0004.34
2023-07-23 18:35:00,SystemResetWarning,0833.4,5.01,000.00,028.8,025.3,000.0,036.9,030.2,18.6,0000.0,0004.72,0008.48,0004.33
2023-07-23 18:36:00,SystemResetWarning,0833.4,4.99,000.00,028.8,025.7,000.0,037.0,030.1,18.0,0000.0,0004.69,0008.01,0004.33
2023-07-23 18:37:00,SystemResetWarning,0833.4,4.99,000.00,028.8,026.1,000.0,037.0,030.2,18.1,0000.0,0004.71,0008.08,0004.34
2023-07-23 18:38:00,SystemResetWarning,0833.4,5.00,000.00,028.8,026.6,000.0,037.1,030.3,21.0,0000.0,0004.75,0008.10,0004.35
2023-07-23 18:39:00,SystemResetWarning,0833.4,5.01,000.00,028.8,026.9,000.0,037.1,030.4,23.1,0000.0,0004.70,0007.94,0004.32
2023-07-23 18:40:00,SystemResetWarning,0833.4,5.00,000.00,028.9,027.3,000.0,037.1,030.5,22.3,0000.0,0004.65,0007.91,0004.29
2023-07-23 18:41:00,SystemResetWarning,0833.4,4.99,000.00,028.9,027.2,000.0,037.1,030.5,23.2,0000.0,0004.60,0007.76,0004.26
2023-07-23 18:42:00,SystemResetWarning,0833.4,4.99,000.00,028.9,025.7,000.0,037.0,030.3,21.5,0000.0,0004.58,0007.71,0004.25
2023-07-23 18:43:00,SystemResetWarning,0833.3,5.01,000.00,028.8,025.1,000.0,036.9,030.2,22.1,0000.0,0004.56,0007.68,0004.24
2023-07-23 18:44:00,SystemResetWarning,0833.3,5.01,000.00,028.8,025.5,000.0,036.9,030.2,21.8,0000.0,0004.55,0008.05,0004.22
2023-07-23 18:45:00,SystemResetWarning,0833.3,4.99,000.00,028.8,025.9,000.0,037.0,030.1,20.9,0000.0,0004.54,0008.04,0004.22
2023-07-23 18:46:00,SystemResetWarning,0833.4,5.00,000.00,028.8,026.3,000.0,037.0,030.2,20.9,0000.0,0004.56,0007.82,0004.24
2023-07-23 18:47:00,SystemResetWarning,0833.4,5.01,000.00,028.8,026.7,000.0,037.0,030.3,21.7,0000.0,0004.57,0007.88,0004.25
2023-07-23 18:48:00,SystemResetWarning,0833.4,4.99,000.00,028.8,027.1,000.0,037.1,030.4,23.2,0000.0,0004.56,0007.84,0004.26
2023-07-23 18:49:00,SystemResetWarning,0833.4,4.98,000.00,028.9,027.0,000.0,037.0,030.5,21.7,0000.0,0004.57,0007.89,0004.26
2023-07-23 18:50:00,SystemResetWarning,0833.4,5.00,000.00,028.8,025.5,000.0,036.9,030.3,19.9,0000.0,0004.62,0008.25,0004.29
2023-07-23 18:51:00,SystemResetWarning,0833.4,5.01,000.00,028.8,024.9,000.0,036.9,030.2,20.1,0000.0,0004.67,0008.26,0004.33
2023-07-23 18:52:00,SystemResetWarning,0833.4,5.02,000.00,028.7,025.3,000.0,036.9,030.1,20.0,0000.0,0004.71,0008.36,0004.37
2023-07-23 18:53:00,SystemResetWarning,0833.4,4.99,000.00,028.7,025.7,000.0,036.9,030.1,21.0,0000.0,0004.78,0008.48,0004.43
2023-07-23 18:54:00,SystemResetWarning,0833.4,5.00,000.00,028.7,026.1,000.0,036.9,030.1,19.0,0000.0,0004.85,0008.55,0004.49
2023-07-23 18:55:00,SystemResetWarning,0833.4,5.01,000.00,028.7,026.5,000.0,037.0,030.2,19.3,0000.0,0004.91,0008.35,0004.53
2023-07-23 18:56:00,SystemResetWarning,0833.4,5.01,000.00,028.7,026.9,000.0,037.0,030.3,20.4,0000.0,0004.94,0008.39,0004.56
2023-07-23 18:57:00,SystemResetWarning,0833.4,4.99,000.00,028.8,026.8,000.0,037.0,030.3,19.7,0000.0,0004.98,0008.44,0004.59
2023-07-23 18:58:00,SystemResetWarning,0833.4,4.99,000.00,028.7,025.4,000.0,036.9,030.1,19.2,0000.0,0005.03,0008.52,0004.62
2023-07-23 18:59:00,SystemResetWarning,0833.4,5.01,000.00,028.7,024.8,000.0,036.8,030.0,20.0,0000.0,0005.10,0009.29,0004.66
